Location: Atherton
(17.2661°S, 145.4859°E)
Time: 23:11:33
(UTC+10:00)

Transit 2A - Pass Details

Date: 23 June 2025
Orbit: 598 x 948 km, 66.7° (Epoch: 19 July)

Event Time Altitude Azimuth Distance (km) Brightness Sun altitude
Rises 19:49:37 0° 182° (S) 3,386 - -26.8°
Reaches altitude 10° 19:52:47 10° 166° (SSE) 2,378 - -27.5°
Maximum altitude 19:56:48 21° 118° (ESE) 1,658 - -28.4°
Drops below altitude 10° 20:00:31 10° 70° (ENE) 2,187 - -29.3°
Sets 20:03:16 0° 53° (NE) 3,036 - -29.9°
